It's Friday,
December 13th, 2019
User not logged in
[Run Race Header Image][Run Race logo]
  
Race webcasting is attempted by race directors and their support staff. Please remember that conditions under which they're working may make it difficult to post timely webcast updates... your interest and patience is appreciated!
Race Information
Race Name:2nd Annual Indiana Trail 100
Location:Albion
State:Indiana, United States
 button: button: Webcast Autoplay
Event Information
Name of Event:100 Mile Trail
Distance:100 Miles
Started Date/Time:Saturday April 26th, 2014, 5:59:34.15 am
button: Assign Numbers  
Checkpoint:Finish4
Distance:66.68 Miles
Gun Start Time:Saturday April 26th, 2014 5:59:34.15 am
Calculate Chip Start Time:< not set >
Y or N... Calculate splits based upon participant chip start time?
Allow Early Chip Start Time:< not set >
Y or N... Allow participants a chip start time prior to gun start?
Pos Race
Number
NameAgeSexTimePace 
1166Jim Trout44M10:43:36.79:39.1Sat Apr 26th, 2014 4:43:10 pm
2141Shan Riggs35M10:58:22.59:52.4Sat Apr 26th, 2014 4:57:56 pm
314John Bertram51M11:16:53.310:09.1Sat Apr 26th, 2014 5:16:27 pm
4170ben wallace57M11:24:44.610:16.1Sat Apr 26th, 2014 5:24:18 pm
5148Travis Shields37M11:32:41.710:23.3Sat Apr 26th, 2014 5:32:15 pm
641Paul Dott31M11:39:10.810:29.1Sat Apr 26th, 2014 5:38:44 pm
734Vincent Corona30M11:46:20.610:35.6Sat Apr 26th, 2014 5:45:54 pm
8182Craig Wheeler52M11:50:57.810:39.7Sat Apr 26th, 2014 5:50:31 pm
9151Jen Skelly34F11:53:19.610:41.9Sat Apr 26th, 2014 5:52:53 pm
10158Paul Stofko38M11:54:07.910:42.6Sat Apr 26th, 2014 5:53:42 pm
11149Todd Siebert32M12:04:47.510:52.2Sat Apr 26th, 2014 6:04:21 pm
1226Jessica Campbell21F12:10:59.610:57.8Sat Apr 26th, 2014 6:10:33 pm
1328Tony Cesario50M12:43:16.311:26.8Sat Apr 26th, 2014 6:42:50 pm
14127Daniel Paige34M12:47:44.611:30.8Sat Apr 26th, 2014 6:47:18 pm
15140Kirk Ridenour54M12:47:44.911:30.8Sat Apr 26th, 2014 6:47:19 pm
1679David E. Jackson36M12:48:34.311:31.6Sat Apr 26th, 2014 6:48:08 pm
17161Mika Thewes22F13:02:03.811:43.7Sat Apr 26th, 2014 7:01:37 pm
1820Erin Brady42F13:04:12.511:45.6Sat Apr 26th, 2014 7:03:46 pm
19129Ben Pearce19M13:06:45.611:47.9Sat Apr 26th, 2014 7:06:19 pm
20104David Mentjes44M13:10:46.111:51.5Sat Apr 26th, 2014 7:10:20 pm
2168Shawn Hawk49M13:17:08.011:57.3Sat Apr 26th, 2014 7:16:42 pm
2244Tanya Eggert44F13:32:59.412:11.5Sat Apr 26th, 2014 7:32:33 pm
2387Ryan "Stormy" Knight37M13:34:12.312:12.6Sat Apr 26th, 2014 7:33:46 pm
2424todd brown45M13:49:02.212:26.0Sat Apr 26th, 2014 7:48:36 pm
25113SIAMAK MOSTOUFI39M13:49:02.412:26.0Sat Apr 26th, 2014 7:48:36 pm
2650Linda Keuneke50F13:49:42.912:26.6Sat Apr 26th, 2014 7:49:17 pm
27162Mark Thill38M13:50:53.312:27.7Sat Apr 26th, 2014 7:50:27 pm
2846Mike Else45M13:51:05.012:27.8Sat Apr 26th, 2014 7:50:39 pm
2963Jerret Halter32M13:55:22.912:31.7Sat Apr 26th, 2014 7:54:57 pm
30183Anastasia Andrychowski34F13:55:26.512:31.7Sat Apr 26th, 2014 7:55:00 pm
3154Tom Fifer51M13:57:21.612:33.5Sat Apr 26th, 2014 7:56:55 pm
32123Reggie O'HARA45M13:59:55.312:35.8Sat Apr 26th, 2014 7:59:29 pm
3351Dan Fabish18M14:05:42.712:41.0Sat Apr 26th, 2014 8:05:16 pm
34115Carolynn Nauta32F14:08:12.812:43.2Sat Apr 26th, 2014 8:07:46 pm
35145James Schroeder37M14:08:23.212:43.4Sat Apr 26th, 2014 8:07:57 pm
36184Kinga Kokoc35F14:11:36.312:46.3Sat Apr 26th, 2014 8:11:10 pm
3762Martin Guthrie47M14:11:58.612:46.6Sat Apr 26th, 2014 8:11:32 pm
38133Richard Plezia55M14:14:33.612:48.9Sat Apr 26th, 2014 8:14:07 pm
3957Mark Gavorski48M14:14:42.712:49.1Sat Apr 26th, 2014 8:14:16 pm
40116David Nelson26M14:14:50.012:49.2Sat Apr 26th, 2014 8:14:24 pm
41125Jeff Oliver40M14:15:27.212:49.8Sat Apr 26th, 2014 8:15:01 pm
42134dave potter49M14:17:24.912:51.5Sat Apr 26th, 2014 8:16:59 pm
4372Rich Henderson58M14:19:14.812:53.2Sat Apr 26th, 2014 8:18:48 pm
44103Chris McMahon54M14:19:41.212:53.6Sat Apr 26th, 2014 8:19:15 pm
4536John Cushma40M14:26:00.712:59.3Sat Apr 26th, 2014 8:25:34 pm
46114Larry Mullinnix49M14:26:36.712:59.8Sat Apr 26th, 2014 8:26:10 pm
47177Eric Fritz46M14:28:30.613:01.5Sat Apr 26th, 2014 8:28:04 pm
48154Mike Smith56M14:31:11.813:03.9Sat Apr 26th, 2014 8:30:45 pm
49126Julie Pagel29F14:32:27.613:05.1Sat Apr 26th, 2014 8:32:01 pm
50108Joshua Mock32M14:32:48.513:05.4Sat Apr 26th, 2014 8:32:22 pm
5140Noe j Dominguez45M14:33:15.013:05.8Sat Apr 26th, 2014 8:32:49 pm
52181Rene Samano28M14:34:36.213:07.0Sat Apr 26th, 2014 8:34:10 pm
5342Michael Dowdell38M14:37:01.613:09.2Sat Apr 26th, 2014 8:36:35 pm
54147mark sheeran54M14:39:35.313:11.5Sat Apr 26th, 2014 8:39:09 pm
555LEE ANDERSON56M14:43:54.713:15.4Sat Apr 26th, 2014 8:43:28 pm
56156Phil Stapert47M14:51:06.713:21.8Sat Apr 26th, 2014 8:50:40 pm
5756Helen Garen49F14:51:38.813:22.3Sat Apr 26th, 2014 8:51:12 pm
58107Kirk Misaka55M14:58:57.113:28.9Sat Apr 26th, 2014 8:58:31 pm
59180Michael Linkogel43M14:59:00.813:29.0Sat Apr 26th, 2014 8:58:34 pm
6091Bill Kulwicki55M15:07:36.913:36.7Sat Apr 26th, 2014 9:07:11 pm
6176Scott Hudson46M15:13:49.913:42.3Sat Apr 26th, 2014 9:13:24 pm
6283Chris Junken35M15:14:00.213:42.4Sat Apr 26th, 2014 9:13:34 pm
638Brian Barger53M15:19:59.213:47.8Sat Apr 26th, 2014 9:19:33 pm
6466Dick Canterbury66M15:23:44.313:51.2Sat Apr 26th, 2014 9:23:18 pm
65171Marci Wease37F15:27:46.613:54.8Sat Apr 26th, 2014 9:27:20 pm
66143Matthew Santner37M15:29:27.713:56.3Sat Apr 26th, 2014 9:29:01 pm
67178Joe Cuthbertson39M15:32:33.813:59.1Sat Apr 26th, 2014 9:32:07 pm
6839Nathan DeWall34M15:39:26.314:05.3Sat Apr 26th, 2014 9:39:00 pm
6925Aaron Butler32M15:39:51.514:05.7Sat Apr 26th, 2014 9:39:25 pm
7073Jeff Hogan45M15:40:34.214:06.3Sat Apr 26th, 2014 9:40:08 pm
71165Judd Trayling40M15:42:12.514:07.8Sat Apr 26th, 2014 9:41:46 pm
7221Bob Brashear55M15:42:32.614:08.1Sat Apr 26th, 2014 9:42:06 pm
73159Steve Sunbury44M15:42:42.314:08.3Sat Apr 26th, 2014 9:42:16 pm
74169Chris Walker34M15:44:26.514:09.8Sat Apr 26th, 2014 9:44:00 pm
7517Andrew Borst43M15:54:22.314:18.8Sat Apr 26th, 2014 9:53:56 pm
76174Randall Yost55M15:57:06.714:21.2Sat Apr 26th, 2014 9:56:40 pm
77130Alfredo ''Moose'' Pedro45M16:04:14.914:27.7Sat Apr 26th, 2014 10:03:49 pm
78121Mark Norfleet57M16:14:38.514:37.0Sat Apr 26th, 2014 10:14:12 pm
79135Rob Putz48M16:17:14.914:39.3Sat Apr 26th, 2014 10:16:49 pm
80146Rob Schultz47M16:19:56.714:41.8Sat Apr 26th, 2014 10:19:30 pm
8199Daniel Maddox38M16:25:17.314:46.6Sat Apr 26th, 2014 10:24:51 pm
8216toni bohannon46F16:27:37.214:48.7Sat Apr 26th, 2014 10:27:11 pm
832Kurt Adams35M16:29:09.014:50.1Sat Apr 26th, 2014 10:28:43 pm
8464Cindylee Torres54F16:38:49.014:58.8Sat Apr 26th, 2014 10:38:23 pm
8578Lauren Idzik43F16:39:21.814:59.2Sat Apr 26th, 2014 10:38:55 pm
8652Jamie Farley35M16:40:08.314:59.9Sat Apr 26th, 2014 10:39:42 pm
87163Derek Tinnin46M16:43:39.615:03.1Sat Apr 26th, 2014 10:43:13 pm
8848Karen Erba44F16:43:39.915:03.1Sat Apr 26th, 2014 10:43:14 pm
896Ric Angara43M16:44:44.415:04.1Sat Apr 26th, 2014 10:44:18 pm
9069Kent Heck52M16:46:38.415:05.8Sat Apr 26th, 2014 10:46:12 pm
9174Alex "ACE" Honigford33M16:54:03.315:12.5Sat Apr 26th, 2014 10:53:37 pm
92124Ethan Olds24M16:56:41.015:14.8Sat Apr 26th, 2014 10:56:15 pm
9382Juan Juarez42M17:00:18.215:18.1Sat Apr 26th, 2014 10:59:52 pm
9486John Klarquist49M17:02:53.615:20.4Sat Apr 26th, 2014 11:02:27 pm
9531Mark Coates33M17:05:31.315:22.8Sat Apr 26th, 2014 11:05:05 pm
9693John Leighton53M17:10:41.715:27.4Sat Apr 26th, 2014 11:10:15 pm
97120Caleb Nolen28M17:13:21.415:29.8Sat Apr 26th, 2014 11:12:55 pm
98105Craig Meseko29M17:13:23.515:29.9Sat Apr 26th, 2014 11:12:57 pm
9933Aaron Conner41M17:17:34.615:33.6Sat Apr 26th, 2014 11:17:08 pm
100167Ali Turfe50M17:22:28.215:38.0Sat Apr 26th, 2014 11:22:02 pm
101111James Cooper44M17:34:11.615:48.6Sat Apr 26th, 2014 11:33:45 pm
10270Mike Heider54M17:37:25.715:51.5Sat Apr 26th, 2014 11:36:59 pm
10353Ramon Ferrer Jr34M17:38:28.815:52.4Sat Apr 26th, 2014 11:38:02 pm
1049Crystal Barton38F17:41:16.515:55.0Sat Apr 26th, 2014 11:40:50 pm
10538James Davidson51M17:41:17.115:55.0Sat Apr 26th, 2014 11:40:51 pm
10612Richard Barton61M17:41:22.415:55.0Sat Apr 26th, 2014 11:40:56 pm
10735Joe Cortez49M17:43:10.115:56.7Sat Apr 26th, 2014 11:42:44 pm
108101Sondra Marker50F17:49:15.616:02.1Sat Apr 26th, 2014 11:48:49 pm
109132Catherine Pinkston29F17:49:18.216:02.2Sat Apr 26th, 2014 11:48:52 pm
11010Kathy Barton57F17:49:44.316:02.6Sat Apr 26th, 2014 11:49:18 pm
11111Mark Barton57M17:49:51.716:02.7Sat Apr 26th, 2014 11:49:25 pm
112150Robert Siscoe59M17:50:15.716:03.0Sat Apr 26th, 2014 11:49:49 pm
113122Terry Null55M17:59:02.216:10.9Sat Apr 26th, 2014 11:58:36 pm
114137Jamie Quarandillo40F18:06:23.716:17.6Sun Apr 27th, 2014 12:05:57 am
115176Stan Zygmunt51M18:11:41.116:22.3Sun Apr 27th, 2014 12:11:15 am
116173Michael Wolff41M18:26:17.416:35.5Sun Apr 27th, 2014 12:25:51 am
11747David Englund46M18:27:37.416:36.7Sun Apr 27th, 2014 12:27:11 am
118138Frank Rampton57M18:36:56.816:45.1Sun Apr 27th, 2014 12:36:30 am
119102Rick McClain52M18:41:03.316:48.7Sun Apr 27th, 2014 12:40:37 am
12081MELISSA JOYCE-HASSAN49F18:53:47.917:00.2Sun Apr 27th, 2014 12:53:22 am
121172Kenneth Westerman55M19:02:56.117:08.4Sun Apr 27th, 2014 1:02:30 am
12223Kimmie Brown34F19:04:56.517:10.2Sun Apr 27th, 2014 1:04:30 am
12315sandra bocchicchio41F19:07:59.517:13.0Sun Apr 27th, 2014 1:07:33 am
12497Suann Lundsberg38F19:32:00.617:34.6Sun Apr 27th, 2014 1:31:34 am

Event Information
Name of Event:50 Mile Trail
Distance:50 Miles
Started Date/Time:Saturday April 26th, 2014, 5:59:34.15 am
button: Assign Numbers 
2004-2019 : All rights reserved
Terms and Conditions